Date String (YYYY-MM-DD hh:mm:ss) UTC,Instrument flags,Ambient pressure (hPa),Sample flow (lpm),Bypass flow (lpm),Sample temperature (°C),Ambient temperature (°C),ASC tube jacket temperature (°C),LED temperature (°C),Box temperature (°C),Sample RH (%),Span deviation,Mass concentration (μg/m³),Mass concentration (μg/m³),Mass concentration (μg/m³)
DateTimeUTC,F1_M11,P_M11,Q1_M11,Q2_M11,T1_M11,T2_M11,T3_M11,T4_M11,T5_M11,U1_M11,ZSPAN_M11,X0_M11,X2_M11,X1_M11
2023-01-10 01:00:00,,0821.1,5.00,0.00,23.8,22.5,00.0,32.6,25.5,11.7,0000.0,0004.52,0002.75,0002.16
2023-01-10 01:01:00,,0821.1,5.00,0.00,23.8,22.5,00.0,32.6,25.5,11.5,0000.0,0004.53,0002.75,0002.13
2023-01-10 01:02:00,,0821.2,4.99,0.00,23.8,22.4,00.0,32.6,25.5,11.5,0000.0,0004.80,0002.71,0002.10
2023-01-10 01:03:00,,0821.2,5.00,0.00,23.7,22.5,00.0,32.6,25.5,11.5,0000.0,0005.33,0002.63,0002.08
2023-01-10 01:04:00,,0821.2,5.00,0.00,23.7,22.5,00.0,32.6,25.5,11.5,0000.0,0005.74,0002.60,0002.06
2023-01-10 01:05:00,,0821.2,5.00,0.00,23.8,22.5,00.0,32.6,25.5,11.4,0000.0,0006.32,0002.58,0002.02
2023-01-10 01:06:00,,0821.3,5.00,0.00,23.8,22.5,00.0,32.6,25.5,11.5,0000.0,0006.26,0002.56,0002.01
2023-01-10 01:07:00,,0821.3,5.01,0.00,23.8,22.5,00.0,32.6,25.6,12.0,0000.0,0006.39,0002.56,0002.03
2023-01-10 01:08:00,,0821.3,4.99,0.00,23.8,22.6,00.0,32.6,25.6,12.2,0000.0,0006.60,0002.60,0002.05
2023-01-10 01:09:00,,0821.2,5.00,0.00,23.8,22.6,00.0,32.6,25.6,12.0,0000.0,0006.84,0002.61,0002.04
2023-01-10 01:10:00,,0821.2,5.00,0.00,23.8,22.6,00.0,32.6,25.6,12.0,0000.0,0006.86,0002.61,0002.03
2023-01-10 01:11:00,,0821.2,5.00,0.00,23.8,22.6,00.0,32.6,25.5,11.7,0000.0,0006.93,0002.64,0002.03
2023-01-10 01:12:00,,0821.1,5.02,0.00,23.8,22.6,00.0,32.6,25.5,11.7,0000.0,0006.93,0002.60,0002.03
2023-01-10 01:13:00,,0821.1,5.00,0.00,23.8,22.6,00.0,32.6,25.6,11.6,0000.0,0007.50,0002.61,0002.03
2023-01-10 01:14:00,,0821.1,5.00,0.00,23.8,22.6,00.0,32.6,25.6,11.6,0000.0,0008.50,0002.65,0002.04
2023-01-10 01:15:00,,0821.1,5.01,0.00,23.8,22.6,00.0,32.6,25.6,11.6,0000.0,0008.31,0002.68,0002.04
2023-01-10 01:16:00,,0821.1,5.01,0.00,23.8,22.6,00.0,32.6,25.6,11.6,0000.0,0008.14,0002.73,0002.05
2023-01-10 01:17:00,,0821.1,5.00,0.00,23.8,22.5,00.0,32.6,25.6,11.6,0000.0,0008.05,0002.75,0002.06
2023-01-10 01:18:00,,0821.1,5.00,0.00,23.8,22.5,00.0,32.6,25.6,11.6,0000.0,0007.97,0002.72,0002.06
2023-01-10 01:19:00,,0821.1,5.00,0.00,23.8,22.5,00.0,32.7,25.5,11.4,0000.0,0007.79,0002.64,0002.03
2023-01-10 01:20:00,,0821.1,5.00,0.00,23.8,22.5,00.0,32.7,25.6,11.5,0000.0,0007.77,0002.63,0002.02
2023-01-10 01:21:00,,0821.1,5.01,0.00,23.8,22.5,00.0,32.7,25.6,11.5,0000.0,0007.68,0002.59,0002.00
2023-01-10 01:22:00,,0821.1,5.00,0.00,23.8,22.5,00.0,32.7,25.6,11.5,0000.0,0007.65,0002.58,0001.99
2023-01-10 01:23:00,,0821.1,5.00,0.00,23.8,22.5,00.0,32.7,25.6,11.5,0000.0,0007.94,0002.59,0001.98
2023-01-10 01:24:00,,0821.0,5.00,0.00,23.8,22.5,00.0,32.7,25.6,11.5,0000.0,0007.28,0002.58,0001.97
2023-01-10 01:25:00,,0821.0,5.00,0.00,23.8,22.5,00.0,32.7,25.6,11.4,0000.0,0005.24,0002.58,0001.96
2023-01-10 01:26:00,,0821.0,4.99,0.00,23.9,22.5,00.0,32.7,25.6,11.4,0000.0,0004.90,0002.52,0001.95
2023-01-10 01:27:00,,0821.0,5.00,0.00,23.9,22.5,00.0,32.7,25.6,11.4,0000.0,0004.89,0002.50,0001.94
2023-01-10 01:28:00,,0820.9,5.00,0.00,23.9,22.5,00.0,32.7,25.6,11.3,0000.0,0004.87,0002.52,0001.94
2023-01-10 01:29:00,,0820.9,5.00,0.00,23.9,22.5,00.0,32.7,25.6,11.3,0000.0,0005.07,0002.51,0001.93
2023-01-10 01:30:00,,0820.9,5.00,0.00,23.9,22.5,00.0,32.7,25.6,11.3,0000.0,0005.23,0002.51,0001.93
2023-01-10 01:31:00,,0821.0,5.01,0.00,23.9,22.5,00.0,32.7,25.6,11.2,0000.0,0004.94,0002.46,0001.92
2023-01-10 01:32:00,,0821.0,5.01,0.00,23.9,22.5,00.0,32.7,25.6,11.2,0000.0,0004.95,0002.47,0001.93
2023-01-10 01:33:00,,0820.9,4.99,0.00,23.9,22.5,00.0,32.7,25.6,11.2,0000.0,0004.83,0002.44,0001.92
2023-01-10 01:34:00,,0820.9,5.00,0.00,23.9,22.5,00.0,32.7,25.6,11.1,0000.0,0004.27,0002.44,0001.91
2023-01-10 01:35:00,,0820.8,5.01,0.00,23.9,22.5,00.0,32.7,25.5,11.1,0000.0,0004.21,0002.42,0001.88
2023-01-10 01:36:00,,0820.8,5.00,0.00,23.9,22.5,00.0,32.7,25.6,11.2,0000.0,0004.22,0002.44,0001.87
2023-01-10 01:37:00,,0820.7,5.00,0.00,23.8,22.5,00.0,32.7,25.5,11.3,0000.0,0004.32,0002.48,0001.87
2023-01-10 01:38:00,,0820.7,5.00,0.00,23.8,22.5,00.0,32.7,25.5,11.2,0000.0,0004.16,0002.42,0001.84
2023-01-10 01:39:00,,0820.7,5.01,0.00,23.8,22.4,00.0,32.7,25.4,11.1,0000.0,0004.14,0002.34,0001.80
2023-01-10 01:40:00,,0820.8,5.00,0.00,23.8,22.4,00.0,32.7,25.5,11.1,0000.0,0005.05,0002.36,0001.77
2023-01-10 01:41:00,,0820.8,5.00,0.00,23.8,22.4,00.0,32.7,25.5,11.2,0000.0,0005.35,0002.36,0001.74
2023-01-10 01:42:00,,0820.8,5.00,0.00,23.8,22.4,00.0,32.7,25.5,11.1,0000.0,0005.71,0002.38,0001.70
2023-01-10 01:43:00,,0820.8,5.00,0.00,23.8,22.4,00.0,32.7,25.5,11.1,0000.0,0006.20,0002.40,0001.67
2023-01-10 01:44:00,,0820.9,5.00,0.00,23.8,22.4,00.0,32.7,25.5,11.1,0000.0,0006.08,0002.35,0001.64
2023-01-10 01:45:00,,0820.8,5.00,0.00,23.8,22.4,00.0,32.7,25.5,11.1,0000.0,0005.94,0002.28,0001.62
2023-01-10 01:46:00,,0820.8,5.00,0.00,23.8,22.4,00.0,32.7,25.5,11.1,0000.0,0005.92,0002.27,0001.61
2023-01-10 01:47:00,,0820.7,5.00,0.00,23.8,22.4,00.0,32.7,25.5,11.1,0000.0,0006.36,0002.22,0001.59
2023-01-10 01:48:00,,0820.7,4.99,0.00,23.8,22.4,00.0,32.7,25.5,11.1,0000.0,0006.59,0002.14,0001.55
2023-01-10 01:49:00,,0820.8,5.00,0.00,23.8,22.4,00.0,32.6,25.5,11.0,0000.0,0006.70,0002.16,0001.53
2023-01-10 01:50:00,,0820.8,5.00,0.00,23.8,22.4,00.0,32.6,25.5,11.1,0000.0,0007.33,0002.20,0001.53
2023-01-10 01:51:00,,0820.8,5.01,0.00,23.8,22.4,00.0,32.7,25.5,11.0,0000.0,0007.05,0002.13,0001.49
2023-01-10 01:52:00,,0820.8,5.00,0.00,23.8,22.4,00.0,32.6,25.5,11.2,0000.0,0006.69,0002.07,0001.47
2023-01-10 01:53:00,,0820.8,5.01,0.00,23.8,22.4,00.0,32.6,25.5,11.6,0000.0,0006.45,0002.06,0001.47
2023-01-10 01:54:00,,0820.8,5.00,0.00,23.8,22.4,00.0,32.6,25.5,12.0,0000.0,0006.08,0002.09,0001.50
2023-01-10 01:55:00,,0820.8,5.00,0.00,23.8,22.4,00.0,32.6,25.5,12.0,0000.0,0006.23,0002.15,0001.52
2023-01-10 01:56:00,,0820.8,5.00,0.00,23.8,22.4,00.0,32.6,25.5,12.0,0000.0,0006.22,0002.15,0001.53
2023-01-10 01:57:00,,0820.8,5.00,0.00,23.8,22.4,00.0,32.6,25.5,11.6,0000.0,0006.25,0002.13,0001.51
2023-01-10 01:58:00,,0820.8,5.00,0.00,23.8,22.4,00.0,32.6,25.5,11.5,0000.0,0005.92,0002.15,0001.50
2023-01-10 01:59:00,,0820.7,5.00,0.00,23.8,22.4,00.0,32.6,25.5,11.5,0000.0,0005.42,0002.13,0001.49
